Dayton Wright, OH

11:05 PM EDT on April 27, 2017 (GMT -0400)
Dayton-Wright Brothers

Weather History for KMGY - December, 2012

Change the Weather History Date:

Wednesday, December 12, 2012

  Actual Average (KFFO) Record (KFFO)
Temperature  
Mean Temperature 31 °F -  
Max Temperature 41 °F 40 °F 69 °F (2015)
Min Temperature 21 °F 26 °F 3 °F (2013)
Degree Days  
Heating Degree Days 34    
Moisture  
Dew Point 22 °F    
Average Humidity 72    
Maximum Humidity 92    
Minimum Humidity 45    
Precipitation  
Precipitation 0.00 in - - ()
Sea Level Pressure  
Sea Level Pressure 30.37 in    
Wind  
Wind Speed 4 mph (SSE)    
Max Wind Speed 7 mph    
Max Gust Speed -    
Visibility 9 miles    
Events      
Averages and records for this station are not official NWS values.
T = Trace of Precipitation, MM = Missing Value Source: NWS Daily Summary

Daily Weather History Graph

Daily Weather History Graph

Search for Another Location

Airport or City:

Trip Planner

Search our weather history database for the weather conditions in past years. The results will help you decide how hot, cold, wet, or windy it might be!

Date:

Astronomy

Dec. 12, 2012 Rise Set
Actual Time 7:48 AM EST 5:13 PM EST
Civil Twilight 7:18 AM EST 5:43 PM EST
Nautical Twilight 6:44 AM EST 6:17 PM EST
Astronomical Twilight 6:11 AM EST 6:49 PM EST
Moon 6:51 AM EST (12/12) 4:49 PM EST (12/12)
Length of Visible Light 10h 25m
Length of Day
9h 24m
Waning Crescent, 1% of the Moon is Illuminated
Dec 12
Waning Crescent
Dec 13
New
Dec 20
First Quarter
Dec 28
Full
Jan 4
Last Quarter

Hourly Weather History & Observations

Time (EST) Temp. Windchill Dew Point Humidity Pressure Visibility Wind Dir Wind Speed Gust Speed Precip Events Conditions
12:53 AM 23.0 °F 15.8 °F 19.9 °F 88% 30.27 in 10.0 mi South 5.8 mph - N/A   Clear
1:53 AM 23.0 °F 15.8 °F 19.9 °F 88% 30.29 in 10.0 mi South 5.8 mph - N/A   Clear
2:53 AM 24.1 °F - 19.9 °F 84% 30.30 in 9.0 mi Calm Calm - N/A   Clear
3:53 AM 23.0 °F 18.4 °F 19.9 °F 88% 30.31 in 8.0 mi South 3.5 mph - N/A   Clear
4:53 AM 23.0 °F 15.8 °F 19.0 °F 85% 30.33 in 9.0 mi South 5.8 mph - N/A   Clear
5:53 AM 24.1 °F - 21.0 °F 88% 30.35 in 9.0 mi Calm Calm - N/A   Clear
6:53 AM 24.1 °F - 21.0 °F 88% 30.37 in 8.0 mi Calm Calm - N/A   Clear
7:53 AM 21.9 °F 17.2 °F 19.9 °F 92% 30.38 in 7.0 mi SSE 3.5 mph - N/A   Clear
8:53 AM 26.1 °F 18.4 °F 23.0 °F 88% 30.40 in 7.0 mi South 6.9 mph - N/A   Clear
9:53 AM 28.9 °F 23.9 °F 25.0 °F 85% 30.41 in 9.0 mi South 4.6 mph - N/A   Clear
10:53 AM 33.1 °F 27.7 °F 27.0 °F 78% 30.42 in 10.0 mi South 5.8 mph - N/A   Clear
11:53 AM 36.0 °F 32.1 °F 25.0 °F 64% 30.41 in 10.0 mi Variable 4.6 mph - N/A   Clear
12:53 PM 39.0 °F 36.8 °F 24.1 °F 55% 30.39 in 10.0 mi Variable 3.5 mph - N/A   Clear
1:53 PM 39.9 °F - 23.0 °F 51% 30.37 in 10.0 mi Calm Calm - N/A   Clear
2:53 PM 41.0 °F - 21.9 °F 47% 30.37 in 10.0 mi Calm Calm - N/A   Clear
3:53 PM 41.0 °F - 21.0 °F 45% 30.37 in 10.0 mi Calm Calm - N/A   Clear
4:53 PM 39.9 °F 37.8 °F 23.0 °F 51% 30.37 in 10.0 mi ESE 3.5 mph - N/A   Clear
5:53 PM 37.0 °F 34.5 °F 23.0 °F 57% 30.38 in 10.0 mi SE 3.5 mph - N/A   Clear
6:53 PM 35.1 °F 31.0 °F 23.0 °F 61% 30.39 in 10.0 mi ESE 4.6 mph - N/A   Clear
7:53 PM 34.0 °F 28.8 °F 24.1 °F 67% 30.40 in 10.0 mi ESE 5.8 mph - N/A   Clear
8:53 PM 33.1 °F 28.7 °F 23.0 °F 66% 30.41 in 10.0 mi ESE 4.6 mph - N/A   Clear
9:53 PM 32.0 °F 26.4 °F 23.0 °F 69% 30.41 in 10.0 mi ESE 5.8 mph - N/A   Clear
10:53 PM 30.9 °F 26.2 °F 23.0 °F 72% 30.41 in 10.0 mi East 4.6 mph - N/A   Clear
11:53 PM 26.1 °F 20.5 °F 21.0 °F 81% 30.40 in 10.0 mi East 4.6 mph - N/A   Clear